Content
SEND FEEDBACK

Daily
Averages
Monthly
Summary
Canada

VANCOUVER - UNIVERSITY, BRITISH COLUMBIA


Home > North America > Canada > British Columbia
Elevation: 249 feet     Latitude: 49 15N     Longitude: 123 15W

WEATHER
 
SELECT A DAY
Number of Records: 194,376;   Date Range: 1/1/95 - 7/27/14
 
SHARE

PRINT THIS DATA

[ ← Previous Day ]
WEATHER ALMANAC - JANUARY 1, 2013
[ Next Day → ]
[ °C ]   °F
Weather ElementAverageHighLow
Temperature31.2 °F33.8 °F (3:00 am)28.4 °F (8:51 pm)
Dewpoint13.7 °F32 °F (2:00 am) (7:00 pm)
Humidity95.2 %100 % (2:00 am)91 % (4:00 am)
Wind Speed3 mph9.2 mph (2:24 am)
Weather ElementAverage
Visibility1.1 mi
Wind Direction (751.9 °)

Weather ElementTotal
Precipitation---
Heating Degree Days33.9 (Base 65)
Averaged from 59 records on January 1, 2013
WEATHER CONDITIONS BREAKOUT
WIND DIRECTION BREAKOUT
WEATHER BY HOUR - JANUARY 1, 2013
[ °C ]   °F
Local TimeTemperatureDewpointHumidityBarometerVisibilityWind DirectionWind SpeedGust SpeedPrecipitationEventsConditions
12:21 AM32.0 °F0.0 °F0.0 mi10.4 (2013°)0.00 inLight Freezing Fog100
1:00 AM32.0 °F30.2 °F93 %30.49 in0.1 miEast (100°)8.1 mphFogFog
1:31 AM32.0 °F0.0 °F0.0 mi5.8 (2013°)0.00 inFog90
1:42 AM32.0 °F0.0 °F0.0 mi5.8 (2013°)0.00 inFog90
1:55 AM32.0 °F0.0 °F0.0 mi5.8 (2013°)0.00 inFog80
2:00 AM32.0 °F32.0 °F100 %30.51 in0.5 miEast (90°)5.8 mphFogFog
2:12 AM32.0 °F0.0 °F0.0 mi5.8 (2013°)Clear80
2:24 AM32.0 °F0.0 °F1.0 miEast (100°)9.2 mphClear
2:38 AM32.0 °F0.0 °F1.5 miEast (90°)9.2 mphClear
3:00 AM33.8 °F32.0 °F93 %30.50 in1.5 miEast (90°)9.2 mphClear
3:46 AM33.8 °F0.0 °F4.0 miEast (90°)6.9 mphMostly Cloudy
4:00 AM33.0 °F31.0 °F91 %30.49 in4.0 miEast (90°)6.9 mphMist
4:00 AM32.0 °F32.0 °F100 %30.49 in4.0 miEast (90°)6.9 mphOvercast
5:00 AM32.0 °F30.2 °F93 %30.49 in4.0 miNorth (10°)4.6 mphMostly Cloudy
6:00 AM30.2 °F30.2 °F100 %30.50 in0.5 miCalmFogLight Freezing Fog
6:11 AM30.2 °F0.0 °F0.0 mi2.3 (2013°)0.00 inLight Freezing Fog80
7:00 AM30.2 °F30.2 °F100 %30.50 in0.2 miCalmFogLight Freezing Fog
7:13 AM30.2 °F0.0 °F0.0 miCalm (2013°)0.00 inLight Freezing Fog0
8:00 AM30.2 °F28.4 °F93 %30.52 in0.1 miCalmFogLight Freezing Fog
9:00 AM30.2 °F28.4 °F93 %30.53 in0.1 miCalmFogLight Freezing Fog
9:34 AM30.2 °F0.0 °F0.0 mi3.5 (2013°)0.00 inLight Freezing Fog140
10:00 AM30.2 °F30.2 °F100 %30.55 in0.2 miCalmFogLight Freezing Fog
10:00 AM30.0 °F29.0 °F96 %30.55 in0.0 miCalmFogLight Fog
11:00 AM30.2 °F30.2 °F100 %30.53 in0.2 miESE (110°)5.8 mphFogLight Freezing Fog
12:00 PM32.0 °F32.0 °F100 %30.51 in0.2 miSE (130°)3.5 mphFogFog
12:08 PM32.0 °F0.0 °F0.0 miCalm (2013°)0.00 inFog0
12:19 PM32.0 °F0.0 °F0.0 miCalm (2013°)Overcast0
12:36 PM32.0 °F0.0 °F1.5 miSouth (190°)3.5 mphOvercast
1:00 PM33.8 °F32.0 °F93 %30.50 in1.5 miWSW (250°)4.6 mphOvercast
1:11 PM33.8 °F0.0 °F1.0 miCalmOvercast
1:50 PM33.8 °F0.0 °F0.0 miCalm (2013°)Overcast0
2:00 PM33.8 °F32.0 °F93 %30.48 in0.5 miCalmFogFog
2:18 PM33.8 °F0.0 °F0.0 miCalm (2013°)Overcast0
2:50 PM33.8 °F0.0 °F0.0 miCalm (2013°)Overcast0
3:00 PM33.8 °F32.0 °F93 %30.48 in0.8 miCalmOvercast
3:12 PM33.8 °F0.0 °F0.0 miCalm (2013°)0.00 inFog0
4:00 PM32.0 °F32.0 °F100 %30.48 in0.5 miWest (280°)3.5 mphFogFog
4:00 PM33.0 °F31.0 °F91 %30.48 in0.0 miCalmFogLight Fog
4:35 PM32.0 °F0.0 °F0.0 miCalm (2013°)Overcast0
4:52 PM32.0 °F0.0 °F1.0 miCalmOvercast
5:00 PM32.0 °F30.2 °F93 %30.46 in0.8 miCalmOvercast
5:22 PM32.0 °F0.0 °F3.0 miCalmOvercast
6:00 PM32.0 °F32.0 °F100 %30.44 in6.0 miCalmMostly Cloudy
7:00 PM30.2 °F28.4 °F93 %30.43 in3.0 miESE (110°)3.5 mphMostly Cloudy
7:22 PM30.2 °F0.0 °F0.0 mi4.6 (2013°)0.00 inLight Freezing Fog90
7:30 PM30.2 °F0.0 °F0.0 mi3.5 (2013°)0.00 inLight Freezing Fog90
7:55 PM30.2 °F0.0 °F0.0 mi3.5 (2013°)0.00 inLight Freezing Fog100
8:00 PM30.2 °F28.4 °F93 %30.42 in0.2 miESE (120°)3.5 mphFogLight Freezing Fog
8:11 PM30.2 °F0.0 °F0.0 mi3.5 (2013°)0.00 inLight Freezing Fog100
8:51 PM28.4 °F0.0 °F0.0 mi2.3 (2013°)0.00 inLight Freezing Fog100
9:00 PM28.4 °F26.6 °F93 %30.41 in0.5 miESE (120°)2.3 mphFogLight Freezing Fog
9:13 PM28.4 °F0.0 °F3.0 miCalmMostly Cloudy
9:21 PM28.4 °F0.0 °F1.5 miCalmScattered Clouds
9:49 PM28.4 °F0.0 °F4.0 miCalmScattered Clouds
10:00 PM29.0 °F27.0 °F91 %30.41 in6.0 miESE (120°)3.5 mphMist
10:00 PM28.4 °F26.6 °F93 %30.41 in6.0 miESE (120°)3.5 mphScattered Clouds
11:00 PM28.4 °F26.6 °F93 %30.40 in1.5 miEast (100°)4.6 mphMostly Cloudy
11:35 PM28.4 °F0.0 °F1.0 miEast (90°)3.5 mphMostly Cloudy
11:49 PM28.4 °F0.0 °F2.0 miESE (110°)3.5 mphScattered Clouds
Hourly data recorded from CYVR, located miles away from Vancouver - University, British Columbia







STORIES FROM OUR PARTNERS